CAPE
0 0 0 0 0 0 0 0 0 0 0 0 0 0 0 0 0 0 0 0 0 0 0 0 0 0 0 0 0 0 0 0 0 0 0 0 0 0 0 0 0 0 0
0 0 0 0 0 0 0 0 0 0 0 0 0 0 0 0 0 0 0 0 0 0 0 0 0 0 0 0 0 0 0 0 0 0 0 0 0 0 0 0 0 0 0
0 0 0 0 0 0 0 0 0 0 0 0 0 0 0 0 0 0 0 0 0 0 0 0 0 0 0 0 0 0 0 0 0 0 0 0 0 0 0 0 0 0 0
0 0 0 0 0 0 0 0 0 0 0 0 0 0 0 0 0 0 0 0 0 0 0 0 0 0 0 0 0 0 0 0 0 0 0 0 0 0 0 0 0 0 0
0 0 0 0 0 0 0 0 0 0 0 0 0 0 0 0 0 0 0 0 0 0 0 0 0 0 0 0 0 0 0 0 0 0 0 0 0 0 0 0 0 0 0
0 0 0 0 0 0 0 0 0 0 0 0 0 0 0 0 0 0 0 0 0 0 0 0 0 0 0 0 0 0 0 0 0 0 0 0 0 0 0 0 0 0 0
0 0 0 0 0 0 0 0 0 0 0 0 0 0 0 0 0 0 0 0 0 0 0 0 0 0 0 0 0 0 0 0 0 0 0 0 0 0 0 0 0 0 0
0 0 0 0 0 0 0 0 0 0 0 0 0 0 0 0 0 0 0 0 0 0 0 0 0 0 0 0 0 0 0 0 0 0 0 0 0 0 0 0 0 0 0
0 0 0 0 0 0 0 0 0 0 0 0 0 0 0 0 0 0 0 0 0 0 0 0 0 0 0 0 0 0 0 0 0 0 0 0 0 0 0 0 0 0 0
0 0 0 0 0 0 0 0 0 0 0 0 0 0 0 0 0 0 0 0 0 0 0 0 0 0 0 0 0 0 0 0 0 0 0 0 0 0 0 0 0 0 0
0 0 0 0 0 0 0 0 0 0 0 0 0 0 0 0 0 0 0 0 0 0 0 0 0 0 0 0 0 0 0 0 0 0 0 0 0 0 0 0 0 0 0
0 0 0 0 0 0 0 0 0 0 0 0 0 0 0 0 0 0 0 0 0 0 0 0 0 0 0 0 0 0 0 0 0 0 0 0 0 0 0 0 0 0 0
0 0 0 0 0 0 0 0 0 0 0 0 0 0 0 0 0 0 0 0 0 0 0 0 0 0 0 0 0 0 0 0 0 0 0 2 1 0 0 0 0 0 0
0 0 0 0 0 0 0 0 0 0 0 0 0 0 0 0 0 0 0 0 0 0 0 0 0 0 0 0 0 0 0 0 0 0 0 0 0 0 0 0 0 0 8
0 0 0 0 0 0 0 0 0 0 0 0 0 0 0 0 0 0 0 0 0 0 0 0 0 0 0 0 0 0 0 0 0 0 2 5 1 12 10 0 0 0 5
0 0 0 0 0 0 0 0 0 0 0 0 0 0 0 0 0 0 0 0 0 0 0 0 0 0 0 0 10 22 14 14 19 9 3 6 20 11 20 17 44 8 0
0 0 0 0 0 0 0 0 0 0 0 0 0 0 0 0 0 0 0 0 0 0 0 0 0 0 0 3 11 23 19 17 19 21 20 0 2 13 6 3 20 30 29
0 0 0 0 0 0 0 0 0 0 0 0 0 0 0 0 0 0 0 0 0 0 0 0 0 0 0 5 12 22 19 9 13 24 12 1 0 0 0 0 0 0 0
0 0 0 0 0 0 0 0 0 0 0 0 0 0 0 0 0 0 0 0 0 0 0 0 1 1 2 3 11 17 11 3 5 1 0 0 0 0 11 12 10 1 0
0 0 0 0 0 0 0 0 0 0 0 0 0 0 0 0 0 0 0 0 0 0 1 2 2 2 3 3 6 17 20 2 4 3 0 4 1 0 7 9 9 11 4
0 0 0 0 0 0 0 0 0 0 0 0 0 0 0 0 0 0 0 0 1 2 2 2 1 1 1 3 47 41 25 13 2 1 0 0 0 5 6 14 13 7 2
0 0 0 0 0 0 0 0 0 0 0 0 0 0 0 0 0 0 1 1 2 2 2 2 0 6 2 11 12 16 15 21 6 0 0 0 0 0 5 13 17 27 10
0 0 0 0 0 0 0 0 0 0 0 0 0 0 0 0 0 0 1 2 2 1 1 7 4 5 4 3 8 9 19 27 12 0 0 0 0 4 18 21 32 50 38
0 0 0 0 0 0 0 0 0 0 0 0 0 0 0 1 0 1 1 2 2 1 4 3 3 4 3 5 11 2 0 10 19 6 0 3 6 5 7 1 0 2 3
0 0 0 0 0 0 0 0 0 0 0 0 0 0 0 1 0 1 1 2 1 9 7 5 13 9 6 8 21 15 0 0 0 6 0 0 1 0 1 0 1 0 2
0 0 0 0 0 0 0 0 0 0 0 0 0 0 1 0 1 1 1 2 6 5 9 10 22 13 20 10 6 5 22 6 1 0 0 5 6 0 0 0 0 0 0
CIN
0 0 0 0 0 0 0 0 0 0 0 0 0 0 0 0 0 0 0 0 0 0 0 0 0 0 0 0 0 0 0 0 0 0 0 0 0 0 0 0 0 0 0
0 0 0 0 0 0 0 0 0 0 0 0 0 0 0 0 0 0 0 0 0 0 0 0 0 0 0 0 0 0 0 0 0 0 0 0 0 0 0 0 0 0 0
0 0 0 0 0 0 0 0 0 0 0 0 0 0 0 0 0 0 0 0 0 0 0 0 0 0 0 0 0 0 0 0 0 0 0 0 0 0 0 0 0 0 0
0 0 0 0 0 0 0 0 0 0 0 0 0 0 0 0 0 0 0 0 0 0 0 0 0 0 0 0 0 0 0 0 0 0 0 0 0 0 0 0 0 0 0
0 0 0 0 0 0 0 0 0 0 0 0 0 0 0 0 0 0 0 0 0 0 0 0 0 0 0 0 0 0 0 0 0 0 0 0 0 0 0 0 0 0 0
0 0 0 0 0 0 0 0 0 0 0 0 0 0 0 0 0 0 0 0 0 0 0 0 0 0 0 0 0 0 0 0 0 0 0 0 0 0 0 0 0 0 0
0 0 0 0 0 0 0 0 0 0 0 0 0 0 0 0 0 0 0 0 0 0 0 0 0 0 0 0 0 0 0 0 0 0 0 0 0 0 0 0 0 0 0
0 0 0 0 0 0 0 0 0 0 0 0 0 0 0 0 0 0 0 0 0 0 0 0 0 0 0 0 0 0 0 0 0 0 0 0 0 0 0 0 0 0 0
0 0 0 0 0 0 0 0 0 0 0 0 0 0 0 0 0 0 0 0 0 0 0 0 0 0 0 0 0 0 0 0 0 0 0 0 0 0 0 0 0 0 0
0 0 0 0 0 0 0 0 0 0 0 0 0 0 0 0 0 0 0 0 0 0 0 0 0 0 0 0 0 0 0 0 0 0 0 0 0 0 0 0 0 0 0
0 0 0 0 0 0 0 0 0 0 0 0 0 0 0 0 0 0 0 0 0 0 0 0 0 0 0 0 0 0 0 0 0 0 0 0 0 0 0 0 0 0 0
0 0 0 0 0 0 0 0 0 0 0 0 0 0 0 0 0 0 0 0 0 0 0 0 0 0 0 0 0 0 0 0 0 0 0 0 0 0 0 0 0 0 0
0 0 0 0 0 0 0 0 0 0 0 0 0 0 0 0 0 0 0 0 0 0 0 0 0 0 0 0 0 -1 -7 0 0 0 0 -3 -3 0 0 0 0 0 0
0 0 0 0 0 0 0 0 0 0 0 0 0 0 0 0 0 0 0 0 0 0 0 0 0 0 0 0 0 0 0 0 -7 -5 0 0 -0 -1 -4 0 0 0 -7
0 0 0 0 0 0 0 0 0 0 0 0 0 0 0 0 0 0 0 0 0 0 0 0 0 0 0 0 0 0 0 0 -4 0 -7 -1 -0 -1 -0 0 0 0 -4
0 0 0 0 0 0 0 0 0 0 0 0 0 0 0 0 0 0 0 0 0 0 0 0 0 0 0 -0 -1 -0 -0 -0 -0 -0 -0 -2 -0 -0 -1 -2 -1 -22 0
0 0 0 0 0 0 0 0 0 0 0 0 0 0 0 0 0 0 0 0 0 0 0 0 0 0 -0 -0 -0 -0 -0 -0 -1 -0 -0 -0 -0 -0 -1 -1 -1 -1 -1
0 0 0 0 0 0 0 0 0 0 0 0 0 0 0 0 0 0 0 0 0 0 0 0 0 0 -0 -0 -0 -0 -0 0 -0 -1 -1 -0 0 0 0 0 0 0 0
0 0 0 0 0 0 0 0 0 0 0 0 0 0 0 0 0 0 0 0 0 0 0 0 0 0 0 0 -0 -0 -0 -0 -0 -0 0 0 0 0 -3 -1 -3 -2 -0
0 0 0 0 0 0 0 0 0 0 0 0 0 0 0 0 0 0 0 0 0 0 0 0 0 0 0 0 -0 -0 -0 -0 0 -0 0 -1 -0 -0 -1 -2 -3 0 -0
0 0 0 0 0 0 0 0 0 0 0 0 0 0 0 0 0 0 0 -0 0 0 0 0 0 0 0 -1 -0 -0 -0 0 0 0 0 0 0 -1 -1 -2 -2 -1 -1
0 0 0 0 0 0 0 0 0 0 0 0 0 0 0 0 0 0 -0 0 0 0 0 0 -0 -0 -1 -0 -0 -0 -0 -0 -0 -0 0 0 0 0 -1 -1 -11 -1 -1
0 0 0 0 0 0 0 0 0 0 0 0 0 0 0 0 -1 -0 0 0 0 0 0 -0 0 -0 -0 -0 -0 -0 -0 -0 -0 -1 0 0 0 -2 -1 -2 -1 -1 -1
0 0 0 0 0 0 0 0 0 0 0 0 0 -1 0 -0 -1 -0 0 0 0 0 -3 0 -0 0 -0 0 -0 0 -3 -0 -0 -0 -11 -14 -12 -17 -6 -3 0 -8 -1
0 0 0 0 0 0 0 0 0 0 0 0 0 -0 -0 -0 -0 0 0 0 0 -0 0 0 0 0 0 -0 -0 -0 -0 0 -3 -6 -6 -2 -7 -0 -14 0 0 0 -0
0 0 0 0 0 0 0 0 0 0 0 0 0 -0 0 -0 0 -0 0 0 0 -0 -0 -0 -0 -0 -0 -0 -0 -2 -0 -0 -3 0 -3 -7 -8 0 0 0 0 -0 0
Wind_Speed
7 6 5 5 6 7 8 9 11 14 17 20 22 24 27 29 31 32 34 35 36 37 38 38 39 39 40 40 39 39 40 39 37 41 42 39 40 34 34 34 31 32 35
6 5 5 5 5 6 7 10 12 15 18 20 22 23 26 28 31 33 35 35 37 37 38 39 40 40 41 42 41 42 41 39 38 41 42 46 42 35 28 32 34 35 35
5 4 5 5 7 8 9 10 13 16 19 21 23 26 28 30 33 36 37 37 37 38 38 39 40 42 41 44 43 42 41 44 41 37 38 43 42 44 38 37 40 40 37
5 4 4 6 7 9 10 12 15 17 20 21 25 29 32 36 36 38 37 39 38 40 40 40 41 42 42 43 42 40 41 41 45 42 38 39 41 48 53 41 40 39 41
4 4 4 6 9 12 14 15 17 18 21 23 27 30 34 36 37 39 40 41 41 40 41 42 43 44 43 43 42 43 44 42 44 43 43 42 43 43 47 55 48 41 39
3 5 8 12 14 16 18 18 19 21 23 27 29 32 35 37 40 41 43 44 44 44 44 45 45 44 44 45 44 45 44 45 44 44 43 44 46 47 47 49 50 49 44
9 9 10 13 16 18 18 19 21 24 27 29 31 32 35 37 40 43 45 47 48 48 48 46 46 46 46 46 46 45 45 45 45 45 44 43 44 44 45 48 52 51 46
13 12 13 16 17 17 18 20 23 25 27 29 31 33 35 38 40 43 46 47 47 47 47 48 47 48 47 46 46 47 47 46 46 46 45 45 43 42 43 45 48 53 50
16 16 16 18 18 20 21 23 24 26 28 31 33 35 38 41 44 46 45 45 46 48 48 47 48 49 49 49 48 48 47 45 44 45 44 42 43 43 43 43 43 47 54
22 23 23 22 21 21 22 24 25 28 30 33 35 38 42 44 45 45 46 47 47 47 49 50 49 48 48 46 44 44 43 42 42 41 40 39 39 40 39 40 41 41 46
26 26 23 22 22 22 23 26 28 31 33 36 39 41 43 44 45 46 47 47 48 50 50 49 48 47 47 44 43 41 40 40 40 39 37 36 36 37 37 37 36 39 40
26 25 24 22 23 25 27 29 31 34 36 38 40 42 44 46 48 49 48 47 49 48 49 47 45 44 44 42 39 39 39 37 37 36 35 35 35 36 36 37 39 38 38
27 29 28 27 27 28 29 31 34 37 39 41 43 45 47 48 48 49 48 48 48 47 46 44 42 40 43 41 38 36 35 31 31 33 33 33 34 35 34 35 35 35 34
31 32 31 30 30 31 32 35 37 39 42 42 43 46 47 47 47 47 48 47 46 45 43 41 38 41 40 37 35 34 33 32 30 29 29 31 30 32 31 32 31 32 29
33 33 33 33 32 33 34 36 39 41 41 42 45 46 46 46 47 47 46 45 43 40 41 41 39 37 35 32 30 30 32 32 30 28 29 29 29 29 28 26 26 25 26
36 37 37 35 34 34 36 39 40 41 41 43 45 45 46 47 47 46 45 43 40 43 41 38 36 34 31 30 31 30 30 29 30 29 29 28 32 29 27 26 23 20 19
41 41 40 36 34 34 36 39 40 40 42 42 44 45 45 46 45 44 42 41 43 41 40 37 32 31 30 28 28 28 30 31 30 24 24 25 25 24 23 22 23 22 45
43 42 38 33 31 32 36 38 39 40 41 44 45 43 45 45 45 43 41 41 41 39 37 31 30 32 31 27 29 32 32 28 27 21 20 21 21 20 18 18 19 28 39
40 38 31 29 31 35 36 37 39 41 43 44 44 43 44 45 42 41 41 40 38 37 35 33 31 32 29 27 32 38 35 25 23 19 19 16 16 14 13 13 12 16 37
40 34 29 29 33 34 35 38 41 42 43 42 43 44 42 41 39 38 38 36 35 34 34 33 28 23 27 33 33 33 33 27 22 16 13 11 10 9 9 8 29 34 36
34 28 29 32 34 33 35 39 41 41 40 41 44 44 42 38 36 35 35 36 31 32 32 29 24 27 29 30 30 30 29 27 15 10 10 7 5 5 4 18 34 34 32
30 28 30 32 32 32 35 38 39 39 40 44 41 41 40 36 36 36 36 33 32 32 22 17 35 38 36 36 32 22 21 16 8 5 3 1 3 2 9 30 29 34 32
28 28 30 32 32 33 35 38 38 39 43 43 43 41 38 38 36 39 34 34 28 14 15 43 42 39 44 37 32 24 17 6 5 3 5 4 4 8 22 25 27 30 26
29 29 32 32 34 34 35 35 37 40 42 43 42 38 40 39 38 35 30 16 14 14 42 43 39 45 44 43 44 43 35 22 15 10 9 8 10 5 19 17 18 16 15
30 30 31 33 34 35 35 36 37 40 41 41 40 38 37 38 36 32 31 15 15 39 41 41 43 38 42 45 42 37 31 24 20 16 13 11 7 19 16 16 13 21 11
30 30 31 32 33 34 35 36 38 38 39 41 39 38 37 38 36 34 17 24 23 39 39 40 41 39 40 42 38 35 31 25 20 18 15 16 18 23 21 22 19 16 17
Wind_Direction
315 329 342 1 359 354 354 354 352 349 346 344 341 339 338 339 339 340 338 337 336 334 332 330 328 328 325 324 323 322 318 316 317 312 310 308 307 306 304 303 305 301 299
299 311 327 340 347 351 347 344 344 345 343 342 341 339 338 337 337 338 337 337 335 333 332 330 328 326 324 322 321 319 316 315 316 312 310 306 304 305 304 303 302 300 300
267 290 302 314 329 336 334 337 338 338 338 339 338 336 335 333 332 333 333 333 333 333 331 329 327 325 323 319 318 317 315 311 312 311 308 306 301 303 300 297 297 296 295
274 277 288 314 321 327 334 331 330 331 334 336 334 331 330 328 330 329 331 332 332 331 330 329 327 325 323 319 318 317 314 312 308 308 305 301 301 299 296 296 295 294 292
230 244 274 296 314 321 322 325 326 327 330 331 331 329 328 328 329 329 329 329 330 330 329 327 325 322 320 318 316 314 312 310 307 305 304 302 299 297 295 293 292 292 290
271 284 299 310 314 317 318 321 322 323 327 329 330 329 328 329 329 329 328 328 327 326 325 324 322 320 319 317 314 312 310 308 305 303 301 299 297 296 294 292 291 289 288
324 308 304 308 312 314 316 320 322 322 326 329 330 331 331 330 329 328 327 326 325 324 324 323 321 319 317 315 313 311 308 307 304 302 301 298 295 295 293 291 289 288 288
331 324 317 315 315 317 320 322 323 324 328 330 331 332 331 330 330 329 327 325 325 324 324 322 320 318 316 314 312 309 307 305 303 300 299 298 296 295 293 290 289 286 285
335 329 324 322 321 322 324 325 326 328 329 330 330 330 330 329 328 328 327 326 325 323 323 321 319 317 314 312 310 308 306 305 303 301 299 296 295 295 293 290 288 285 283
332 329 327 326 326 328 329 331 331 329 329 330 330 329 329 328 328 328 326 325 324 324 322 320 318 317 316 314 311 309 308 306 306 304 301 299 298 298 296 292 287 284 283
331 332 332 333 333 333 332 331 330 329 329 328 328 328 328 328 328 327 326 325 324 323 321 320 319 318 317 315 312 310 309 306 306 305 302 301 301 299 298 296 291 286 283
342 344 343 341 337 334 332 331 330 329 328 328 328 328 328 328 327 327 326 325 324 323 322 321 319 318 319 316 313 311 309 307 305 305 302 301 302 301 299 296 292 288 286
341 339 338 337 335 332 331 330 330 328 328 328 328 328 328 328 328 327 327 326 324 324 324 322 321 319 319 317 315 313 311 307 305 304 301 301 302 301 300 298 294 290 285
336 335 334 332 331 330 329 329 329 330 329 329 329 329 329 329 329 329 327 326 326 325 326 325 322 321 320 319 317 314 311 308 305 303 301 301 299 301 299 297 294 292 288
335 334 333 330 329 329 330 331 331 331 332 331 331 331 331 331 330 329 329 329 328 328 327 325 324 323 322 322 320 316 313 310 306 302 301 299 300 298 296 293 292 291 285
331 330 328 327 328 330 331 332 332 334 335 333 333 333 333 332 332 332 331 331 331 329 329 328 327 327 326 323 319 315 313 309 306 302 301 300 301 301 298 294 282 275 277
329 328 328 328 329 332 334 334 335 335 335 335 335 335 335 334 335 334 334 333 332 332 331 331 331 329 328 326 322 316 314 311 308 300 299 299 303 302 300 298 295 280 256
328 328 330 331 334 336 336 336 337 337 336 335 336 337 336 336 336 336 336 335 335 334 335 335 334 331 331 325 326 326 321 314 311 305 299 298 303 303 298 296 293 287 268
331 331 335 337 337 337 338 338 338 337 337 337 337 338 338 337 338 338 338 338 338 338 338 337 336 334 332 331 333 334 330 318 309 302 303 298 299 298 289 291 280 287 253
332 334 337 339 338 339 340 338 337 338 338 339 339 338 340 340 340 340 341 342 341 341 341 341 341 335 336 336 334 333 332 325 317 312 306 294 295 292 287 284 274 256 239
336 339 338 338 339 341 340 338 338 339 340 340 339 339 341 342 343 343 344 345 348 347 346 346 346 343 341 338 336 333 333 329 317 307 313 309 297 294 240 206 244 239 242
337 339 339 339 340 341 339 338 339 341 340 339 342 343 343 345 345 346 346 349 350 350 349 333 346 346 348 347 345 321 310 314 307 302 325 2 5 23 169 242 247 229 234
339 341 340 339 340 340 340 340 341 341 339 340 343 344 346 346 347 343 350 351 356 334 319 333 345 352 350 355 355 331 325 319 13 74 119 81 93 127 252 252 244 234 245
339 340 339 338 338 340 342 342 342 340 340 342 345 348 347 347 345 349 356 352 344 323 334 325 320 347 352 357 358 5 21 54 61 91 106 96 114 112 259 271 265 256 258
339 339 338 338 339 340 341 342 342 341 342 344 347 349 350 347 347 354 329 360 360 316 325 334 342 1 358 352 353 12 32 56 76 62 73 70 62 250 261 240 246 222 238
340 339 340 340 340 341 342 342 342 346 346 346 349 350 350 346 348 308 301 9 6 331 340 338 346 359 360 354 352 4 25 56 76 81 93 132 152 211 241 232 231 226 228